AAL3215 KTPA-KLGA

Flight info

Callsign AAL3215
Flight time 2h 18m
Altitude 35000
Route BAYPO2 CAMJO Q99 POLYY DCT DADDS Q87 HURTS PROUD2
Aircraft B738/M-SDE2E3FGHIRWXY/LB1

Departure

Time 2026-05-06 18:29
Airport Tampa International Airport (KTPA)

Arrival

Time 2026-05-06 20:47
Airport LaGuardia Airport (KLGA)
Time Latitude Longitude Altitude Speed Heading
2026-05-06 18:18 27.97627 -82.53947 45 ft 0 kts 307°
2026-05-06 18:22 27.97629 -82.53949 45 ft 4 kts 306°
2026-05-06 18:22 27.97686 -82.53981 42 ft 14 kts
2026-05-06 18:22 27.97794 -82.53977 45 ft 16 kts
2026-05-06 18:22 27.97906 -82.53975 45 ft 16 kts
2026-05-06 18:23 27.98009 -82.53982 44 ft 14 kts 333°
2026-05-06 18:23 27.98077 -82.54051 46 ft 13 kts 348°
2026-05-06 18:23 27.98177 -82.54049 47 ft 16 kts
2026-05-06 18:23 27.98294 -82.54046 46 ft 18 kts
2026-05-06 18:24 27.98422 -82.54041 47 ft 20 kts
2026-05-06 18:24 27.98564 -82.54037 47 ft 21 kts
2026-05-06 18:24 27.98717 -82.54033 47 ft 22 kts
2026-05-06 18:24 27.98871 -82.54028 47 ft 22 kts
2026-05-06 18:25 27.99022 -82.54021 46 ft 22 kts
2026-05-06 18:25 27.99166 -82.54016 45 ft 19 kts
2026-05-06 18:25 27.99271 -82.54012 45 ft 11 kts
2026-05-06 18:25 27.99330 -82.54019 45 ft 5 kts 327°
2026-05-06 18:26 27.99333 -82.54022 45 ft 0 kts 320°
2026-05-06 18:27 27.99342 -82.54030 45 ft 7 kts 319°
2026-05-06 18:28 27.99350 -82.54096 45 ft 10 kts 269°
2026-05-06 18:28 27.99297 -82.54134 45 ft 12 kts 181°
2026-05-06 18:28 27.98994 -82.54146 47 ft 86 kts 182°
2026-05-06 18:28 27.98118 -82.54173 50 ft 163 kts 184°
2026-05-06 18:29 27.96887 -82.54167 679 ft 186 kts 181°
2026-05-06 18:29 27.95590 -82.54207 1856 ft 185 kts 182°
2026-05-06 18:29 27.94245 -82.54259 2753 ft 200 kts 181°
2026-05-06 18:29 27.92878 -82.54281 3595 ft 196 kts 180°
2026-05-06 18:30 27.91521 -82.54328 4354 ft 195 kts 181°
2026-05-06 18:30 27.90170 -82.54469 5096 ft 198 kts 198°
2026-05-06 18:30 27.89125 -82.55457 5776 ft 203 kts 244°
2026-05-06 18:30 27.88960 -82.57050 6474 ft 212 kts 285°
2026-05-06 18:31 27.89638 -82.58530 7129 ft 216 kts 315°
2026-05-06 18:31 27.90918 -82.59414 7778 ft 222 kts 349°
2026-05-06 18:31 27.92462 -82.59562 8450 ft 231 kts
2026-05-06 18:31 27.94112 -82.59512 9157 ft 243 kts
2026-05-06 18:32 27.95848 -82.59426 9878 ft 256 kts
2026-05-06 18:32 27.97673 -82.59336 10529 ft 268 kts
2026-05-06 18:32 27.99583 -82.59252 11183 ft 281 kts
2026-05-06 18:32 28.01580 -82.59172 11809 ft 295 kts
2026-05-06 18:33 28.03679 -82.59094 12439 ft 308 kts
2026-05-06 18:33 28.05870 -82.59018 13082 ft 321 kts
2026-05-06 18:33 28.08146 -82.58944 13715 ft 333 kts
2026-05-06 18:33 28.10507 -82.58868 14317 ft 344 kts
2026-05-06 18:34 28.12935 -82.58793 14899 ft 354 kts
2026-05-06 18:34 28.15426 -82.58717 15498 ft 362 kts
2026-05-06 18:34 28.17944 -82.58639 16076 ft 371 kts 360°
2026-05-06 18:34 28.20548 -82.58560 16686 ft 377 kts 359°
2026-05-06 18:35 28.23192 -82.58479 17315 ft 383 kts 359°
2026-05-06 18:35 28.25875 -82.58397 17943 ft 388 kts 359°
2026-05-06 18:35 28.28587 -82.58313 18561 ft 392 kts 359°
2026-05-06 18:35 28.31320 -82.58229 19127 ft 395 kts 359°
2026-05-06 18:36 28.34071 -82.58144 19694 ft 397 kts 358°
2026-05-06 18:36 28.36838 -82.58062 20290 ft 398 kts 357°
2026-05-06 18:36 28.39607 -82.58072 20868 ft 398 kts 355°
2026-05-06 18:36 28.42384 -82.58153 21478 ft 398 kts 354°
2026-05-06 18:37 28.44220 -82.58219 21883 ft 398 kts 354°
2026-05-06 18:37 28.46991 -82.58315 22512 ft 397 kts 353°
2026-05-06 18:37 28.49758 -82.58402 23148 ft 396 kts 353°
2026-05-06 18:37 28.53403 -82.58503 23948 ft 394 kts 353°
2026-05-06 18:38 28.55255 -82.58551 24318 ft 393 kts 353°
2026-05-06 18:38 28.57999 -82.58621 24668 ft 397 kts 353°
2026-05-06 18:38 28.60811 -82.58695 24716 ft 409 kts 353°
2026-05-06 18:38 28.63699 -82.58770 24786 ft 420 kts 353°
2026-05-06 18:39 28.66617 -82.58848 24850 ft 430 kts 352°
2026-05-06 18:39 28.69623 -82.59102 24911 ft 436 kts 349°
2026-05-06 18:39 28.72653 -82.59506 25092 ft 440 kts 347°
2026-05-06 18:40 28.78742 -82.60422 25787 ft 441 kts 347°
2026-05-06 18:40 28.81797 -82.60878 26089 ft 443 kts 347°
2026-05-06 18:40 28.84860 -82.61324 26351 ft 445 kts 347°
2026-05-06 18:40 28.87944 -82.61765 26622 ft 447 kts 347°
2026-05-06 18:41 28.91039 -82.62201 26884 ft 449 kts 347°
2026-05-06 18:41 28.94148 -82.62636 27152 ft 451 kts 347°
2026-05-06 18:41 28.97270 -82.63071 27397 ft 452 kts 347°
2026-05-06 18:41 29.00399 -82.63508 27653 ft 454 kts 347°
2026-05-06 18:42 29.03536 -82.63946 27890 ft 455 kts 347°
2026-05-06 18:42 29.06691 -82.64388 28126 ft 457 kts 347°
2026-05-06 18:42 29.09851 -82.64831 28346 ft 458 kts 347°
2026-05-06 18:42 29.13020 -82.65275 28607 ft 459 kts 347°
2026-05-06 18:43 29.16190 -82.65719 28948 ft 457 kts 347°
2026-05-06 18:43 29.19338 -82.66160 29321 ft 455 kts 347°
2026-05-06 18:43 29.22481 -82.66600 29659 ft 454 kts 347°
2026-05-06 18:43 29.25611 -82.67041 29958 ft 453 kts 346°
2026-05-06 18:44 29.28739 -82.67482 30237 ft 453 kts 346°
2026-05-06 18:44 29.31859 -82.67922 30523 ft 451 kts 346°
2026-05-06 18:44 29.34933 -82.68354 30823 ft 449 kts 346°
2026-05-06 18:44 29.38029 -82.68791 31105 ft 447 kts 346°
2026-05-06 18:45 29.41121 -82.69223 31353 ft 447 kts 347°
2026-05-06 18:45 29.44255 -82.69396 31586 ft 452 kts 353°
2026-05-06 18:45 29.47397 -82.69379 31859 ft 452 kts 353°
2026-05-06 18:45 29.50541 -82.69333 32118 ft 451 kts 353°
2026-05-06 18:46 29.53677 -82.69284 32370 ft 449 kts 353°
2026-05-06 18:46 29.56803 -82.69243 32615 ft 448 kts 353°
2026-05-06 18:46 29.59922 -82.69211 32865 ft 447 kts 353°
2026-05-06 18:46 29.62983 -82.69186 33116 ft 446 kts 353°
2026-05-06 18:47 29.66079 -82.69166 33348 ft 445 kts 352°
2026-05-06 18:47 29.69174 -82.69147 33579 ft 444 kts 352°
2026-05-06 18:47 29.72259 -82.69129 33826 ft 442 kts 352°
2026-05-06 18:47 29.75337 -82.69110 34068 ft 441 kts 352°
2026-05-06 18:48 29.78405 -82.69092 34262 ft 440 kts 352°
2026-05-06 18:48 29.81473 -82.69073 34413 ft 440 kts 352°
2026-05-06 18:48 29.84539 -82.69055 34578 ft 440 kts 352°
2026-05-06 18:48 29.87601 -82.69035 34744 ft 440 kts 352°
2026-05-06 18:49 29.90663 -82.69016 34912 ft 439 kts 352°
2026-05-06 18:49 29.93725 -82.68997 35042 ft 440 kts 352°
2026-05-06 18:49 29.96797 -82.68979 35083 ft 443 kts 352°
2026-05-06 18:50 30.02967 -82.68942 35097 ft 449 kts 352°
2026-05-06 18:50 30.09246 -82.68899 35095 ft 453 kts 352°
2026-05-06 18:51 30.15578 -82.68853 35091 ft 456 kts 352°
2026-05-06 18:51 30.21945 -82.68807 35088 ft 458 kts 352°
2026-05-06 18:52 30.28312 -82.68760 35225 ft 456 kts 352°
2026-05-06 18:52 30.34581 -82.68707 35110 ft 442 kts 352°
2026-05-06 18:53 30.40649 -82.68666 35098 ft 436 kts 351°
2026-05-06 18:53 30.46742 -82.68631 35104 ft 439 kts 351°
2026-05-06 18:54 30.52899 -82.68285 35090 ft 452 kts
2026-05-06 18:54 30.59126 -82.66955 35096 ft 456 kts
2026-05-06 18:55 30.65364 -82.65563 35089 ft 457 kts
2026-05-06 18:55 30.71571 -82.64218 35078 ft 456 kts
2026-05-06 18:56 30.77823 -82.62887 35073 ft 455 kts
2026-05-06 18:56 30.84047 -82.61564 35067 ft 454 kts
2026-05-06 18:57 30.90258 -82.60241 35073 ft 453 kts
2026-05-06 18:57 30.96460 -82.58918 35078 ft 452 kts
2026-05-06 18:58 31.02645 -82.57596 35076 ft 451 kts
2026-05-06 18:58 31.08801 -82.56050 35072 ft 460 kts
2026-05-06 18:58 31.11805 -82.54602 35064 ft 472 kts 17°
2026-05-06 18:59 31.14729 -82.52846 35072 ft 474 kts 18°
2026-05-06 18:59 31.20556 -82.49206 35073 ft 474 kts 18°
2026-05-06 19:00 31.26385 -82.45586 35077 ft 474 kts 18°
2026-05-06 19:00 31.32192 -82.42031 35076 ft 474 kts 18°
2026-05-06 19:01 31.38050 -82.38463 35077 ft 474 kts 18°
2026-05-06 19:01 31.43911 -82.34891 35066 ft 475 kts 18°
2026-05-06 19:02 31.49775 -82.31308 35067 ft 475 kts 18°
2026-05-06 19:02 31.55654 -82.27710 35066 ft 476 kts 18°
2026-05-06 19:03 31.61485 -82.24135 35064 ft 476 kts 18°
2026-05-06 19:03 31.67354 -82.20533 35067 ft 476 kts 18°
2026-05-06 19:04 31.73230 -82.16921 35065 ft 476 kts 18°
2026-05-06 19:04 31.79059 -82.13332 35063 ft 476 kts 18°
2026-05-06 19:05 31.84926 -82.09715 35062 ft 476 kts 18°
2026-05-06 19:05 31.90788 -82.06096 35062 ft 476 kts 18°
2026-05-06 19:06 31.96662 -82.02465 35056 ft 476 kts 18°
2026-05-06 19:06 32.02527 -81.98833 35051 ft 476 kts 18°
2026-05-06 19:07 32.08390 -81.95196 35053 ft 476 kts 18°
2026-05-06 19:07 32.14207 -81.91583 35164 ft 473 kts 17°
2026-05-06 19:07 32.17116 -81.89808 35474 ft 469 kts 16°
2026-05-06 19:08 32.20028 -81.88087 35749 ft 467 kts 15°
2026-05-06 19:08 32.22936 -81.86394 36035 ft 465 kts 15°
2026-05-06 19:08 32.25827 -81.84717 36322 ft 463 kts 15°
2026-05-06 19:08 32.28713 -81.83039 36613 ft 460 kts 15°
2026-05-06 19:09 32.31580 -81.81366 36873 ft 459 kts 15°
2026-05-06 19:09 32.34449 -81.79688 37026 ft 460 kts 15°
2026-05-06 19:09 32.37331 -81.78000 37024 ft 464 kts 15°
2026-05-06 19:10 32.43165 -81.74574 37038 ft 471 kts 15°
2026-05-06 19:10 32.49080 -81.71085 37042 ft 476 kts 15°
2026-05-06 19:11 32.54985 -81.67589 37039 ft 478 kts 15°
2026-05-06 19:11 32.60954 -81.64052 37063 ft 480 kts 15°
2026-05-06 19:12 32.66930 -81.60506 37058 ft 480 kts 15°
2026-05-06 19:12 32.72900 -81.56959 37054 ft 479 kts 15°
2026-05-06 19:13 32.78854 -81.53417 37057 ft 478 kts 15°
2026-05-06 19:13 32.84796 -81.49878 37049 ft 477 kts 15°
2026-05-06 19:14 32.90724 -81.46343 37034 ft 476 kts 15°
2026-05-06 19:14 32.96634 -81.42814 37036 ft 475 kts 15°
2026-05-06 19:15 33.02508 -81.39301 37033 ft 475 kts 15°
2026-05-06 19:15 33.08409 -81.35766 37035 ft 474 kts 15°
2026-05-06 19:16 33.14312 -81.32224 37040 ft 474 kts 15°
2026-05-06 19:16 33.20208 -81.28682 37025 ft 474 kts 15°
2026-05-06 19:17 33.26104 -81.25133 37036 ft 474 kts 15°
2026-05-06 19:17 33.31950 -81.21610 37035 ft 474 kts 15°
2026-05-06 19:18 33.37852 -81.18047 37042 ft 474 kts 15°
2026-05-06 19:18 33.43748 -81.14483 37027 ft 474 kts 15°
2026-05-06 19:19 33.49607 -81.10935 37020 ft 475 kts 15°
2026-05-06 19:19 33.55514 -81.07354 37016 ft 475 kts 15°
2026-05-06 19:20 33.61426 -81.03763 37011 ft 476 kts 15°
2026-05-06 19:20 33.67350 -81.00158 37021 ft 477 kts 15°
2026-05-06 19:21 33.73233 -80.96573 37012 ft 477 kts 15°
2026-05-06 19:21 33.79166 -80.92952 37019 ft 477 kts 15°
2026-05-06 19:22 33.85072 -80.89289 36999 ft 483 kts 19°
2026-05-06 19:22 33.87894 -80.86987 37003 ft 495 kts 26°
2026-05-06 19:22 33.90604 -80.84417 37006 ft 497 kts 28°
2026-05-06 19:23 33.95997 -80.79164 37005 ft 497 kts 27°
2026-05-06 19:23 34.01406 -80.74064 36998 ft 497 kts 27°
2026-05-06 19:24 34.06876 -80.68961 37016 ft 497 kts 27°
2026-05-06 19:24 34.11417 -80.64715 37026 ft 497 kts 27°
2026-05-06 19:25 34.16881 -80.59587 37036 ft 497 kts 27°
2026-05-06 19:25 34.22348 -80.54447 37031 ft 498 kts 27°
2026-05-06 19:26 34.27818 -80.49309 37034 ft 498 kts 26°
2026-05-06 19:26 34.33315 -80.44227 37033 ft 497 kts 26°
2026-05-06 19:27 34.38818 -80.39152 37029 ft 497 kts 26°
2026-05-06 19:27 34.44305 -80.34069 37025 ft 496 kts 26°
2026-05-06 19:28 34.49785 -80.28977 37028 ft 496 kts 26°
2026-05-06 19:28 34.55265 -80.23876 37022 ft 496 kts 26°
2026-05-06 19:29 34.60733 -80.18777 37031 ft 496 kts 26°
2026-05-06 19:29 34.66178 -80.13690 37015 ft 495 kts 26°
2026-05-06 19:30 34.71639 -80.08588 37012 ft 495 kts 26°
2026-05-06 19:30 34.77111 -80.03516 37017 ft 494 kts 26°
2026-05-06 19:31 34.82399 -79.98062 37002 ft 511 kts 38°
2026-05-06 19:31 34.89157 -79.87935 37005 ft 517 kts 42°
2026-05-06 19:32 34.93623 -79.81075 37003 ft 516 kts 41°
2026-05-06 19:32 34.97059 -79.75876 37005 ft 515 kts 41°
2026-05-06 19:33 35.01574 -79.69092 36998 ft 515 kts 41°
2026-05-06 19:33 35.06096 -79.62301 37003 ft 515 kts 41°
2026-05-06 19:34 35.10605 -79.55507 37003 ft 514 kts 41°
2026-05-06 19:34 35.15079 -79.48749 36999 ft 514 kts 41°
2026-05-06 19:35 35.19568 -79.41953 37036 ft 514 kts 41°
2026-05-06 19:35 35.24050 -79.35153 37040 ft 513 kts 41°
2026-05-06 19:36 35.28529 -79.28347 37038 ft 513 kts 41°
2026-05-06 19:36 35.33000 -79.21539 37035 ft 512 kts 41°
2026-05-06 19:37 35.37460 -79.14735 37011 ft 512 kts 41°
2026-05-06 19:37 35.41920 -79.07917 37023 ft 512 kts 41°
2026-05-06 19:38 35.46380 -79.01088 37010 ft 513 kts 41°
2026-05-06 19:38 35.50837 -78.94245 37015 ft 513 kts 41°
2026-05-06 19:39 35.55289 -78.87397 37004 ft 513 kts 41°
2026-05-06 19:39 35.59841 -78.80700 37001 ft 502 kts 33°
2026-05-06 19:40 35.62427 -78.77896 37019 ft 489 kts 25°
2026-05-06 19:40 35.65223 -78.75636 37013 ft 474 kts 17°
2026-05-06 19:40 35.70619 -78.71979 37023 ft 474 kts 16°
2026-05-06 19:41 35.75477 -78.68690 37033 ft 475 kts 16°
2026-05-06 19:41 35.81226 -78.64731 37024 ft 477 kts 17°
2026-05-06 19:42 35.87011 -78.60701 37036 ft 478 kts 17°
2026-05-06 19:42 35.92817 -78.56644 37019 ft 480 kts 17°
2026-05-06 19:43 35.95778 -78.54898 37000 ft 459 kts
2026-05-06 19:43 35.98804 -78.54228 37033 ft 430 kts 348°
2026-05-06 19:43 36.01726 -78.54418 37016 ft 411 kts 338°
2026-05-06 19:43 36.04471 -78.55222 37035 ft 402 kts 333°
2026-05-06 19:44 36.09798 -78.57264 37081 ft 398 kts 331°
2026-05-06 19:44 36.12419 -78.58309 37429 ft 393 kts 330°
2026-05-06 19:44 36.15019 -78.59340 37699 ft 391 kts 330°
2026-05-06 19:45 36.17605 -78.60357 38022 ft 388 kts 330°
2026-05-06 19:45 36.20132 -78.61336 38357 ft 385 kts 330°
2026-05-06 19:45 36.21728 -78.61946 38551 ft 383 kts 330°
2026-05-06 19:45 36.24270 -78.62904 38811 ft 379 kts 330°
2026-05-06 19:46 36.26794 -78.63843 38938 ft 380 kts 330°
2026-05-06 19:46 36.29345 -78.64793 38950 ft 382 kts 330°
2026-05-06 19:46 36.34435 -78.66690 38958 ft 386 kts 330°
2026-05-06 19:47 36.39613 -78.68624 38957 ft 389 kts 330°
2026-05-06 19:47 36.44815 -78.70567 38961 ft 391 kts 330°
2026-05-06 19:48 36.50047 -78.72516 38952 ft 392 kts 330°
2026-05-06 19:48 36.55280 -78.74459 38958 ft 392 kts 330°
2026-05-06 19:49 36.60508 -78.76386 38953 ft 391 kts 330°
2026-05-06 19:49 36.65698 -78.78285 38944 ft 391 kts 330°
2026-05-06 19:50 36.70920 -78.80182 38946 ft 390 kts 330°
2026-05-06 19:50 36.76129 -78.82060 38945 ft 389 kts 330°
2026-05-06 19:51 36.81333 -78.83921 38943 ft 388 kts 330°
2026-05-06 19:51 36.86531 -78.85766 38953 ft 388 kts 330°
2026-05-06 19:52 36.91732 -78.87602 38943 ft 388 kts 330°
2026-05-06 19:52 36.96931 -78.89429 38950 ft 388 kts 330°
2026-05-06 19:53 37.02179 -78.91132 38915 ft 403 kts 340°
2026-05-06 19:53 37.05082 -78.90986 38955 ft 436 kts 356°
2026-05-06 19:53 37.08019 -78.89730 38928 ft 470 kts 13°
2026-05-06 19:54 37.10802 -78.87337 38938 ft 501 kts 30°
2026-05-06 19:54 37.13142 -78.83945 38940 ft 529 kts 47°
2026-05-06 19:54 37.14833 -78.79742 38925 ft 551 kts 64°
2026-05-06 19:54 37.15845 -78.75059 38947 ft 560 kts 72°
2026-05-06 19:55 37.17252 -78.65395 38922 ft 565 kts 75°
2026-05-06 19:55 37.18540 -78.55640 38913 ft 568 kts 75°
2026-05-06 19:56 37.19808 -78.45921 38911 ft 569 kts 75°
2026-05-06 19:56 37.21084 -78.36102 38917 ft 571 kts 75°
2026-05-06 19:57 37.22363 -78.26263 38918 ft 570 kts 75°
2026-05-06 19:57 37.23637 -78.16435 38925 ft 570 kts 75°
2026-05-06 19:58 37.24906 -78.06621 38925 ft 569 kts 75°
2026-05-06 19:58 37.26163 -77.96886 38927 ft 568 kts 75°
2026-05-06 19:59 37.27781 -77.87255 38932 ft 560 kts 68°
2026-05-06 19:59 37.29806 -77.77816 38934 ft 558 kts 68°
2026-05-06 20:00 37.31809 -77.68398 38929 ft 558 kts 68°
2026-05-06 20:00 37.33723 -77.58949 38899 ft 557 kts 69°
2026-05-06 20:01 37.35583 -77.49570 38897 ft 556 kts 69°
2026-05-06 20:01 37.37448 -77.40141 38899 ft 555 kts 69°
2026-05-06 20:02 37.39309 -77.30723 38888 ft 553 kts 69°
2026-05-06 20:02 37.41157 -77.21340 38898 ft 552 kts 69°
2026-05-06 20:03 37.42998 -77.11950 38896 ft 552 kts 69°
2026-05-06 20:03 37.44850 -77.02618 38894 ft 544 kts 64°
2026-05-06 20:04 37.46397 -76.98417 38911 ft 515 kts 45°
2026-05-06 20:04 37.48552 -76.94935 38910 ft 495 kts 33°
2026-05-06 20:04 37.51096 -76.92175 38911 ft 472 kts 20°
2026-05-06 20:04 37.53888 -76.90204 38929 ft 455 kts 12°
2026-05-06 20:05 37.59516 -76.86597 38921 ft 458 kts 13°
2026-05-06 20:05 37.65192 -76.82864 38914 ft 461 kts 13°
2026-05-06 20:06 37.70890 -76.79060 38914 ft 464 kts 14°
2026-05-06 20:06 37.76611 -76.75227 38911 ft 466 kts 14°
2026-05-06 20:07 37.82355 -76.71376 38921 ft 468 kts 14°
2026-05-06 20:07 37.88127 -76.67509 38902 ft 470 kts 13°
2026-05-06 20:08 37.93921 -76.63807 38907 ft 468 kts 12°
2026-05-06 20:08 37.99773 -76.60140 38893 ft 469 kts 12°
2026-05-06 20:09 38.05621 -76.56446 38889 ft 470 kts 13°
2026-05-06 20:09 38.11470 -76.52725 38890 ft 470 kts 13°
2026-05-06 20:10 38.17317 -76.48995 38890 ft 470 kts 13°
2026-05-06 20:10 38.23134 -76.45279 38902 ft 470 kts 13°
2026-05-06 20:11 38.28983 -76.41527 38894 ft 473 kts 15°
2026-05-06 20:11 38.30915 -76.40039 38888 ft 486 kts 22°
2026-05-06 20:11 38.33660 -76.37473 38911 ft 492 kts 25°
2026-05-06 20:12 38.39026 -76.32000 38899 ft 495 kts 26°
2026-05-06 20:12 38.44411 -76.26557 38876 ft 495 kts 25°
2026-05-06 20:13 38.47164 -76.23847 38388 ft 505 kts 25°
2026-05-06 20:13 38.49932 -76.21142 37760 ft 507 kts 26°
2026-05-06 20:13 38.52728 -76.18402 37161 ft 507 kts 26°
2026-05-06 20:13 38.55519 -76.15658 36564 ft 505 kts 26°
2026-05-06 20:14 38.58304 -76.12918 36012 ft 506 kts 27°
2026-05-06 20:14 38.61102 -76.10166 35434 ft 508 kts 27°
2026-05-06 20:14 38.63908 -76.07410 34892 ft 509 kts 27°
2026-05-06 20:14 38.66753 -76.04708 34355 ft 509 kts 26°
2026-05-06 20:15 38.69633 -76.02042 33822 ft 514 kts 26°
2026-05-06 20:15 38.72561 -75.99350 33233 ft 521 kts 26°
2026-05-06 20:15 38.75503 -75.96632 32654 ft 522 kts 26°
2026-05-06 20:15 38.78446 -75.93889 32077 ft 522 kts 27°
2026-05-06 20:16 38.81371 -75.91146 31534 ft 520 kts 27°
2026-05-06 20:16 38.84284 -75.88406 31017 ft 518 kts 27°
2026-05-06 20:16 38.87191 -75.85670 30495 ft 517 kts 27°
2026-05-06 20:16 38.90086 -75.82946 29988 ft 516 kts 27°
2026-05-06 20:17 38.92991 -75.80216 29398 ft 519 kts 27°
2026-05-06 20:17 38.95920 -75.77461 28820 ft 523 kts 27°
2026-05-06 20:17 38.98861 -75.74689 28234 ft 526 kts 27°
2026-05-06 20:17 39.01775 -75.71931 27672 ft 525 kts 27°
2026-05-06 20:18 39.04712 -75.69146 27110 ft 524 kts 27°
2026-05-06 20:18 39.07647 -75.66359 26566 ft 523 kts 28°
2026-05-06 20:18 39.10576 -75.63577 26035 ft 523 kts 28°
2026-05-06 20:18 39.13507 -75.60793 25508 ft 522 kts 28°
2026-05-06 20:19 39.16431 -75.58013 24997 ft 522 kts 28°
2026-05-06 20:19 39.19352 -75.55233 24491 ft 521 kts 28°
2026-05-06 20:19 39.22262 -75.52459 24066 ft 517 kts 28°
2026-05-06 20:19 39.25157 -75.49735 23935 ft 514 kts 27°
2026-05-06 20:20 39.28089 -75.47105 23555 ft 512 kts 26°
2026-05-06 20:20 39.31022 -75.44539 23051 ft 506 kts 26°
2026-05-06 20:20 39.33917 -75.42014 22523 ft 498 kts 26°
2026-05-06 20:20 39.36772 -75.39510 22011 ft 494 kts 27°
2026-05-06 20:21 39.39596 -75.37015 21507 ft 489 kts 27°
2026-05-06 20:21 39.42374 -75.34544 21009 ft 480 kts 27°
2026-05-06 20:21 39.45065 -75.32143 20525 ft 473 kts 28°
2026-05-06 20:21 39.47767 -75.29733 20050 ft 470 kts 28°
2026-05-06 20:22 39.50449 -75.27340 19597 ft 467 kts 28°
2026-05-06 20:22 39.53111 -75.24916 19130 ft 467 kts 30°
2026-05-06 20:22 39.55735 -75.22456 18661 ft 464 kts 31°
2026-05-06 20:22 39.58337 -75.19994 18218 ft 462 kts 31°
2026-05-06 20:23 39.60923 -75.17548 17688 ft 458 kts 31°
2026-05-06 20:23 39.63491 -75.15129 17152 ft 454 kts 31°
2026-05-06 20:23 39.66045 -75.12729 16908 ft 453 kts 31°
2026-05-06 20:23 39.68603 -75.10341 16859 ft 451 kts 30°
2026-05-06 20:24 39.71166 -75.08086 16674 ft 451 kts 28°
2026-05-06 20:24 39.73786 -75.05866 16201 ft 448 kts 28°
2026-05-06 20:24 39.76390 -75.03672 15716 ft 444 kts 28°
2026-05-06 20:24 39.78969 -75.01480 15230 ft 440 kts 28°
2026-05-06 20:25 39.81512 -74.99296 14749 ft 435 kts 28°
2026-05-06 20:25 39.84021 -74.97128 14295 ft 430 kts 29°
2026-05-06 20:25 39.86493 -74.94959 13853 ft 427 kts 30°
2026-05-06 20:25 39.88927 -74.92751 13354 ft 425 kts 31°
2026-05-06 20:26 39.91334 -74.90550 13046 ft 417 kts 31°
2026-05-06 20:26 39.93527 -74.88160 13007 ft 411 kts 44°
2026-05-06 20:26 39.95423 -74.85351 13012 ft 414 kts 46°
2026-05-06 20:26 39.97316 -74.82514 13004 ft 415 kts 46°
2026-05-06 20:27 39.99205 -74.79748 12980 ft 401 kts 45°
2026-05-06 20:27 40.01071 -74.77071 12677 ft 398 kts 45°
2026-05-06 20:27 40.02917 -74.74436 12179 ft 398 kts 45°
2026-05-06 20:27 40.04782 -74.71771 11691 ft 397 kts 45°
2026-05-06 20:28 40.06639 -74.69107 11196 ft 396 kts 45°
2026-05-06 20:28 40.08487 -74.66449 10722 ft 395 kts 45°
2026-05-06 20:28 40.10331 -74.63796 10262 ft 394 kts 45°
2026-05-06 20:28 40.12156 -74.61168 10056 ft 386 kts 45°
2026-05-06 20:29 40.13929 -74.58611 9989 ft 372 kts 45°
2026-05-06 20:29 40.15631 -74.56154 9989 ft 356 kts 45°
2026-05-06 20:29 40.17263 -74.53799 9982 ft 342 kts 45°
2026-05-06 20:29 40.18847 -74.51513 9994 ft 337 kts 44°
2026-05-06 20:30 40.20427 -74.49244 10021 ft 338 kts 43°
2026-05-06 20:30 40.23783 -74.44979 10011 ft 338 kts 39°
2026-05-06 20:30 40.25495 -74.42860 10025 ft 339 kts 40°
2026-05-06 20:31 40.27209 -74.40715 9721 ft 346 kts 40°
2026-05-06 20:31 40.28961 -74.38508 9201 ft 351 kts 40°
2026-05-06 20:31 40.30724 -74.36275 8699 ft 354 kts 40°
2026-05-06 20:31 40.32494 -74.34032 8212 ft 355 kts 40°
2026-05-06 20:32 40.34273 -74.31777 7709 ft 356 kts 40°
2026-05-06 20:32 40.36057 -74.29516 7235 ft 357 kts 40°
2026-05-06 20:32 40.37823 -74.27274 7049 ft 347 kts 40°
2026-05-06 20:32 40.39527 -74.25106 7003 ft 333 kts 40°
2026-05-06 20:33 40.41156 -74.23033 6987 ft 319 kts 40°
2026-05-06 20:33 40.42730 -74.21030 7002 ft 313 kts 40°
2026-05-06 20:33 40.44296 -74.19042 7000 ft 313 kts 40°
2026-05-06 20:33 40.45862 -74.17051 7008 ft 313 kts 40°
2026-05-06 20:34 40.47405 -74.15087 7013 ft 314 kts 40°
2026-05-06 20:34 40.48972 -74.13091 7005 ft 315 kts 40°
2026-05-06 20:34 40.50544 -74.11086 7008 ft 315 kts 40°
2026-05-06 20:34 40.52134 -74.09111 7010 ft 314 kts 35°
2026-05-06 20:35 40.53908 -74.07465 7015 ft 311 kts 27°
2026-05-06 20:35 40.55738 -74.05971 6993 ft 309 kts 26°
2026-05-06 20:35 40.57595 -74.04535 6778 ft 309 kts 19°
2026-05-06 20:35 40.59613 -74.03827 6534 ft 295 kts
2026-05-06 20:36 40.61654 -74.03560 6197 ft 294 kts 358°
2026-05-06 20:36 40.63696 -74.03364 5803 ft 294 kts 358°
2026-05-06 20:36 40.65736 -74.03181 5423 ft 294 kts 357°
2026-05-06 20:36 40.67774 -74.03002 5068 ft 293 kts 358°
2026-05-06 20:37 40.69763 -74.02717 5004 ft 286 kts 10°
2026-05-06 20:37 40.71531 -74.01568 4976 ft 281 kts 29°
2026-05-06 20:37 40.73134 -74.00108 4760 ft 280 kts 31°
2026-05-06 20:37 40.74701 -73.98635 4745 ft 273 kts 31°
2026-05-06 20:38 40.76239 -73.97166 4769 ft 274 kts 31°
2026-05-06 20:38 40.77790 -73.95685 4770 ft 276 kts 31°
2026-05-06 20:38 40.79357 -73.94200 4780 ft 278 kts 31°
2026-05-06 20:38 40.80916 -73.92710 4760 ft 276 kts 31°
2026-05-06 20:39 40.82448 -73.91253 4789 ft 274 kts 31°
2026-05-06 20:39 40.84003 -73.89777 4771 ft 275 kts 31°
2026-05-06 20:39 40.85557 -73.88293 4771 ft 276 kts 32°
2026-05-06 20:39 40.87118 -73.86816 4771 ft 276 kts 31°
2026-05-06 20:40 40.88679 -73.85327 4776 ft 276 kts 31°
2026-05-06 20:40 40.90228 -73.83846 4770 ft 274 kts 31°
2026-05-06 20:40 40.91765 -73.82371 4749 ft 273 kts 31°
2026-05-06 20:40 40.93317 -73.80872 4390 ft 278 kts 31°
2026-05-06 20:41 40.94896 -73.79368 4070 ft 280 kts 32°
2026-05-06 20:41 40.96430 -73.77763 3739 ft 286 kts 48°
2026-05-06 20:41 40.97260 -73.75385 3414 ft 289 kts 84°
2026-05-06 20:41 40.96998 -73.72816 3118 ft 280 kts 121°
2026-05-06 20:42 40.95757 -73.71026 3002 ft 254 kts 160°
2026-05-06 20:42 40.94157 -73.70667 2979 ft 220 kts 200°
2026-05-06 20:42 40.93010 -73.71671 2971 ft 194 kts 242°
2026-05-06 20:42 40.92557 -73.73256 3000 ft 178 kts 245°
2026-05-06 20:43 40.91946 -73.74608 2990 ft 165 kts 235°
2026-05-06 20:43 40.91205 -73.75716 3005 ft 161 kts 228°
2026-05-06 20:43 40.90364 -73.76714 3006 ft 164 kts 225°
2026-05-06 20:43 40.89471 -73.77635 3002 ft 158 kts 222°
2026-05-06 20:44 40.88611 -73.78449 2998 ft 145 kts 222°
2026-05-06 20:44 40.87801 -73.79177 2968 ft 140 kts 220°
2026-05-06 20:44 40.86980 -73.79897 3014 ft 143 kts 220°
2026-05-06 20:44 40.86151 -73.80678 2661 ft 150 kts 222°
2026-05-06 20:45 40.85287 -73.81466 2281 ft 151 kts 218°
2026-05-06 20:45 40.84395 -73.82214 1801 ft 153 kts 217°
2026-05-06 20:45 40.83487 -73.82967 1335 ft 153 kts 216°
2026-05-06 20:45 40.82617 -73.83689 1021 ft 144 kts 214°
2026-05-06 20:46 40.81798 -73.84368 808 ft 139 kts 213°
2026-05-06 20:46 40.80995 -73.85034 617 ft 136 kts 212°
2026-05-06 20:46 40.80177 -73.85712 406 ft 140 kts 211°
2026-05-06 20:46 40.79364 -73.86386 267 ft 142 kts 211°
2026-05-06 20:47 40.78506 -73.87099 64 ft 147 kts 211°
2026-05-06 20:47 40.77685 -73.87771 26 ft 113 kts 213°
2026-05-06 20:47 40.77317 -73.88085 21 ft 36 kts 212°
2026-05-06 20:47 40.77149 -73.88223 24 ft 24 kts 211°
2026-05-06 20:48 40.77054 -73.88217 23 ft 8 kts 129°
2026-05-06 20:48 40.77058 -73.88149 24 ft 11 kts 45°
2026-05-06 20:48 40.77138 -73.88081 21 ft 15 kts 32°
2026-05-06 20:48 40.77232 -73.88002 20 ft 16 kts 32°
2026-05-06 20:49 40.77328 -73.87924 20 ft 17 kts 32°
2026-05-06 20:49 40.77424 -73.87845 20 ft 16 kts 32°
2026-05-06 20:49 40.77518 -73.87767 20 ft 15 kts 32°
2026-05-06 20:49 40.77546 -73.87699 19 ft 5 kts 103°
2026-05-06 20:50 40.77522 -73.87656 19 ft 7 kts 129°
2026-05-06 20:50 40.77490 -73.87592 19 ft 9 kts 122°
2026-05-06 20:50 40.77457 -73.87523 20 ft 9 kts 122°
2026-05-06 20:50 40.77438 -73.87450 19 ft 8 kts 98°
2026-05-06 20:51 40.77431 -73.87374 19 ft 8 kts 94°
2026-05-06 20:51 40.77430 -73.87295 19 ft 9 kts 90°
2026-05-06 20:51 40.77443 -73.87249 19 ft 4 kts 38°
2026-05-06 20:51 40.77466 -73.87232 19 ft 4 kts 26°
2026-05-06 20:52 40.77480 -73.87225 19 ft 0 kts 22°